FW0267 Weather Reports


time (UTC)temp
F
wind
direction
speed
knots
gust
knots
rain 1hr
in
rain 24hr
in
rain mn
in
humidity
%
barometer
mb
20260508135538 57 108 0.0 2.6 0.00 0.11 0.00 1 1017.7
20260508135035 56 107 0.0 1.7 0.00 0.11 0.00 1 1017.8
20260508134533 56 107 0.0 1.7 0.00 0.11 0.00 1 1017.9
20260508134030 55 102 0.0 0.9 0.00 0.11 0.00 1 1018.1
20260508133529 55 102 0.0 1.7 0.00 0.11 0.00 1 1018.0
20260508133028 54 121 0.9 1.7 0.00 0.11 0.00 1 1017.9
20260508132529 54 119 0.0 1.7 0.00 0.11 0.00 1 1017.9
20260508132027 53 96 0.0 1.7 0.00 0.11 0.00 1 1018.0
20260508131523 53 113 0.0 2.6 0.00 0.11 0.00 1 1018.0
20260508131022 52 79 0.9 2.6 0.00 0.11 0.00 1 1017.9
20260508130519 52 98 0.9 2.6 0.00 0.11 0.00 1 1018.1
20260508130025 51 111 0.0 2.6 0.00 0.11 0.00 1 1017.9
20260508125517 52 111 0.0 1.7 0.00 0.11 0.00 1 1018.0
20260508125016 52 93 0.0 0.9 0.00 0.11 0.00 1 1017.9
20260508124529 52 90 0.0 0.9 0.00 0.11 0.00 1 1017.7
20260508124012 52 107 0.0 0.0 0.00 0.11 0.00 1 1017.8
20260508123511 51 107 0.0 0.0 0.00 0.11 0.00 1 1017.7
20260508123019 50 107 0.0 0.0 0.00 0.11 0.00 1 1017.6
20260508122508 50 107 0.0 0.0 0.00 0.11 0.00 1 1017.6
20260508122006 49 107 0.0 0.0 0.00 0.11 0.00 1 1017.6
20260508121505 49 107 0.0 0.0 0.00 0.11 0.00 1 1017.5
20260508121003 48 107 0.0 0.0 0.00 0.11 0.00 1 1017.4
20260508120502 48 107 0.0 0.9 0.00 0.11 0.00 1 1017.3
20260508120002 48 107 0.0 0.9 0.00 0.11 0.00 1 1017.2
20260508115602 47 100 0.0 0.9 0.00 0.11 0.00 1 1017.1
20260508115101 47 101 0.0 0.9 0.00 0.11 0.00 1 1017.1
20260508114557 47 103 0.0 0.9 0.00 0.11 0.00 1 1017.0
20260508114055 47 107 0.0 0.9 0.00 0.11 0.00 1 1016.9
20260508113553 46 91 0.0 0.9 0.00 0.11 0.00 1 1016.9
20260508113051 46 94 0.0 0.9 0.00 0.11 0.00 1 1016.7
20260508112550 46 101 0.0 0.9 0.00 0.11 0.00 1 1016.7
20260508112048 46 100 0.0 0.9 0.00 0.11 0.00 1 1016.7
20260508111551 46 94 0.0 0.9 0.00 0.11 0.00 1 1016.5
20260508111046 45 96 0.0 0.0 0.00 0.11 0.00 1 1016.5
20260508110544 45 96 0.0 0.0 0.00 0.11 0.00 1 1016.2
20260508110044 45 96 0.0 0.0 0.00 0.11 0.00 1 1016.3
20260508105544 45 96 0.0 0.0 0.00 0.11 0.00 1 1016.2
20260508105043 45 96 0.0 0.0 0.00 0.11 0.00 1 1016.1
20260508104544 45 96 0.0 0.0 0.00 0.11 0.00 1 1016.1
20260508104037 45 96 0.0 0.0 0.00 0.11 0.00 1 1016.0
20260508103536 45 96 0.0 0.9 0.00 0.11 0.00 1 1015.9
20260508103041 45 96 0.0 0.9 0.00 0.11 0.00 1 1015.8
20260508102534 46 105 0.0 0.9 0.00 0.11 0.00 1 1015.8
20260508102033 46 106 0.0 0.9 0.00 0.11 0.00 1 1015.7
20260508101538 46 101 0.0 0.9 0.00 0.11 0.00 1 1015.7
20260508101029 46 105 0.0 0.9 0.00 0.11 0.00 1 1015.6
20260508100527 46 110 0.0 0.9 0.00 0.11 0.00 1 1015.5
20260508100026 46 67 0.0 1.7 0.00 0.11 0.00 1 1015.5
20260508095524 46 82 0.0 1.7 0.00 0.14 0.00 1 1015.4
20260508095025 46 99 0.0 0.9 0.00 0.14 0.00 1 1015.4
20260508094539 46 84 0.0 1.7 0.00 0.14 0.00 1 1015.2
20260508094021 47 41 0.0 1.7 0.00 0.14 0.00 1 1015.2
20260508093518 47 101 0.0 0.0 0.00 0.14 0.00 1 1015.1
20260508093024 47 101 0.0 0.0 0.00 0.14 0.00 1 1015.1
20260508092519 47 101 0.0 0.0 0.00 0.14 0.00 1 1015.1
20260508092014 47 101 0.0 0.0 0.00 0.14 0.00 1 1015.1
20260508091531 47 101 0.0 0.0 0.00 0.14 0.00 1 1015.0
20260508091011 47 101 0.0 0.0 0.00 0.14 0.00 1 1015.0
20260508090510 47 101 0.0 0.0 0.00 0.14 0.00 1 1014.9
20260508090009 47 101 0.0 0.0 0.00 0.14 0.00 1 1014.9
20260508085510 47 101 0.0 0.9 0.00 0.16 0.00 1 1014.8
20260508085007 47 101 0.0 0.9 0.00 0.16 0.00 1 1014.9
20260508084504 47 104 0.0 0.9 0.00 0.16 0.00 1 1014.9
20260508084002 47 105 0.0 0.9 0.00 0.16 0.00 1 1014.8
20260508083602 47 89 0.0 0.9 0.00 0.16 0.00 1 1014.7
20260508083059 47 101 0.0 0.9 0.00 0.16 0.00 1 1014.6
20260508082559 47 106 0.0 0.9 0.00 0.16 0.00 1 1014.5
20260508082057 47 98 0.0 0.9 0.00 0.16 0.00 1 1014.5
20260508081608 47 104 0.0 0.9 0.00 0.16 0.00 1 1014.4
20260508081054 47 119 0.0 0.9 0.00 0.16 0.00 1 1014.2
20260508080552 48 100 0.0 0.9 0.00 0.16 0.00 1 1014.2
20260508080052 48 96 0.0 0.9 0.00 0.16 0.00 1 1014.2
20260508075549 48 97 0.0 0.9 0.00 0.16 0.00 1 1014.2
20260508075048 48 73 0.0 0.9 0.00 0.16 0.00 1 1014.2
20260508074548 48 101 0.0 0.0 0.00 0.16 0.00 1 1014.2
20260508074048 48 101 0.0 0.0 0.00 0.16 0.00 1 1014.1
20260508073543 48 101 0.0 0.0 0.00 0.16 0.00 1 1014.1
20260508073048 48 101 0.0 0.0 0.00 0.16 0.00 1 1014.1
20260508072540 48 101 0.0 0.0 0.00 0.16 0.00 1 1014.1
20260508072039 48 101 0.0 0.0 0.00 0.16 0.00 1 1014.1
20260508071551 48 101 0.0 0.0 0.00 0.16 0.00 1 1014.1
20260508071037 48 101 0.0 0.0 0.00 0.16 0.00 1 1014.1
20260508070537 48 101 0.0 0.0 0.00 0.16 0.00 1 1014.1
20260508070050 48 101 0.0 0.0 0.00 0.16 0.00 1 1014.1
20260508065536 48 101 0.0 0.9 0.00 0.16 0.00 1 1013.9
20260508065032 48 101 0.0 0.9 0.00 0.16 0.00 1 1014.0
20260508064536 48 106 0.0 0.9 0.00 0.16 0.00 1 1014.0
20260508064029 48 106 0.0 0.9 0.00 0.16 0.00 1 1013.9
20260508063528 48 115 0.0 0.9 0.00 0.16 0.00 1 1014.0
20260508063028 48 94 0.0 0.9 0.00 0.16 0.00 1 1013.7
20260508062525 48 115 0.0 0.9 0.00 0.16 0.00 1 1013.8
20260508062023 48 115 0.0 0.9 0.00 0.16 0.00 1 1013.7
20260508061523 48 78 0.0 0.9 0.00 0.16 0.00 1 1013.7
20260508061020 48 102 0.0 0.9 0.00 0.16 0.00 1 1013.6
20260508060520 48 101 0.0 0.9 0.00 0.16 0.00 1 1013.6
20260508060023 48 106 0.0 0.9 0.00 0.16 0.00 1 1013.5
20260508055515 48 113 0.0 0.9 0.00 0.16 0.00 1 1013.6
20260508055019 48 109 0.0 0.0 0.00 0.16 0.00 1 1013.5
20260508054517 48 109 0.0 0.0 0.00 0.16 0.00 1 1013.3
20260508054011 48 109 0.0 0.0 0.00 0.16 0.00 1 1013.3
20260508053510 48 109 0.0 0.0 0.00 0.16 0.00 1 1013.3
20260508053008 48 109 0.0 0.0 0.00 0.16 0.00 1 1013.3
20260508052509 48 109 0.0 0.0 0.00 0.16 0.00 1 1013.3
20260508052005 48 109 0.0 0.0 0.00 0.16 0.00 1 1013.5
20260508051504 48 109 0.0 0.0 0.00 0.16 0.00 1 1013.5
20260508051002 48 109 0.0 0.0 0.00 0.16 0.00 1 1013.4
20260508050501 48 109 0.0 0.0 0.00 0.16 0.00 1 1013.4
20260508045559 48 109 0.0 0.0 0.00 0.16 0.00 1 1013.4
20260508045058 48 109 0.0 0.9 0.00 0.16 0.00 1 1013.3
20260508044601 48 109 0.0 0.9 0.00 0.16 0.00 1 1013.2
20260508044055 48 109 0.0 0.9 0.00 0.16 0.00 1 1013.1
20260508043553 48 99 0.0 0.9 0.00 0.16 0.00 1 1013.1
20260508043052 48 97 0.0 0.9 0.00 0.16 0.00 1 1013.1
20260508042551 49 87 0.0 0.9 0.00 0.16 0.00 1 1013.0
20260508042049 49 106 0.0 0.9 0.00 0.16 0.00 1 1013.1
20260508041548 49 101 0.0 0.9 0.00 0.16 0.00 1 1013.1
20260508041048 49 112 0.0 0.9 0.00 0.16 0.00 1 1013.1
20260508040544 49 115 0.0 0.9 0.00 0.16 0.00 1 1013.0
20260508040044 49 181 0.0 0.0 0.00 0.16 0.00 1 1012.9
20260508035542 49 181 0.0 0.0 0.00 0.16 0.16 1 1012.9
20260508035041 49 181 0.0 0.0 0.00 0.16 0.16 1 1012.8
20260508034540 49 181 0.0 0.0 0.00 0.16 0.16 1 1012.9
20260508034037 49 181 0.0 0.0 0.00 0.16 0.16 1 1012.9
20260508033536 49 181 0.0 0.0 0.00 0.16 0.16 1 1012.8
20260508033045 49 181 0.0 0.0 0.00 0.16 0.16 1 1012.7
20260508032533 49 181 0.0 0.0 0.00 0.16 0.16 1 1012.9
20260508032031 49 181 0.0 0.0 0.00 0.16 0.16 1 1012.9
20260508031530 49 181 0.0 0.0 0.00 0.16 0.16 1 1012.9
20260508031029 49 181 0.0 0.0 0.00 0.16 0.16 1 1012.8
20260508030528 49 181 0.0 0.0 0.00 0.16 0.16 1 1012.8
20260508030028 49 181 0.0 0.0 0.00 0.16 0.16 1 1012.6
20260508025528 49 181 0.0 0.0 0.00 0.16 0.16 1 1012.6
20260508025023 49 181 0.0 0.0 0.00 0.16 0.16 1 1012.6
20260508024527 49 181 0.0 0.0 0.00 0.16 0.16 1 1012.6
20260508024021 49 181 0.0 0.0 0.00 0.16 0.16 1 1012.4
20260508023519 49 181 0.0 0.0 0.00 0.16 0.16 1 1012.4
20260508023020 49 181 0.0 0.0 0.00 0.16 0.16 1 1012.5
20260508022516 50 181 0.0 0.0 0.00 0.16 0.16 1 1012.4
20260508022015 50 181 0.0 0.0 0.00 0.16 0.16 1 1012.5
20260508021519 50 181 0.0 0.0 0.00 0.16 0.16 1 1012.5
20260508021011 50 181 0.0 0.0 0.00 0.16 0.16 1 1012.4
20260508020510 50 181 0.0 0.0 0.00 0.16 0.16 1 1012.4
20260508020011 50 181 0.0 0.0 0.00 0.16 0.16 1 1012.4
20260508015507 50 181 0.0 0.0 0.00 0.16 0.16 1 1012.2
20260508015006 51 181 0.0 0.0 0.00 0.16 0.16 1 1012.2
20260508014505 51 181 0.0 0.0 0.00 0.16 0.16 1 1012.1
20260508014004 51 181 0.0 0.0 0.00 0.16 0.16 1 1012.1
20260508013501 51 181 0.0 0.0 0.00 0.16 0.16 1 1012.4
20260508013108 51 181 0.0 0.0 0.00 0.16 0.16 1 1012.2
20260508012558 51 181 0.0 0.0 0.00 0.16 0.16 1 1012.0
20260508012057 51 181 0.0 0.0 0.00 0.16 0.16 1 1012.2
20260508011600 51 181 0.0 0.0 0.00 0.16 0.16 1 1012.2
20260508011057 52 181 0.0 0.0 0.00 0.16 0.16 1 1012.0
20260508010553 52 181 0.0 0.0 0.00 0.16 0.16 1 1012.1
20260508010059 52 181 0.0 0.0 0.00 0.16 0.16 1 1011.9
20260508005550 52 181 0.0 0.0 0.00 0.16 0.16 1 1012.0
20260508005049 52 181 0.0 0.0 0.00 0.16 0.16 1 1012.0
20260508004547 52 181 0.0 0.0 0.00 0.16 0.16 1 1011.9
20260508004045 52 181 0.0 0.0 0.00 0.16 0.16 1 1011.8
20260508003543 52 181 0.0 0.0 0.00 0.16 0.16 1 1011.7
20260508003044 52 181 0.0 0.0 0.00 0.16 0.16 1 1011.5
20260508002541 52 181 0.0 0.0 0.00 0.16 0.16 1 1011.5
20260508002039 52 181 0.0 0.0 0.00 0.16 0.16 1 1011.7
20260508001548 53 181 0.0 0.0 0.00 0.16 0.16 1 1011.5
20260508001036 53 181 0.0 0.0 0.00 0.16 0.16 1 1011.3
20260508000535 53 181 0.0 0.0 0.00 0.16 0.16 1 1011.2
20260508000034 53 181 0.0 0.0 0.00 0.16 0.16 1 1011.0
20260507235533 53 181 0.0 0.0 0.00 0.16 0.16 1 1011.2
20260507235032 53 181 0.0 0.0 0.00 0.16 0.16 1 1011.0
20260507234530 53 181 0.0 0.0 0.00 0.16 0.16 1 1010.9
20260507234028 53 181 0.0 0.0 0.00 0.16 0.16 1 1010.9
20260507233526 53 181 0.0 0.0 0.00 0.16 0.16 1 1010.8
20260507233026 53 181 0.0 0.0 0.00 0.16 0.16 1 1010.8
20260507232524 53 181 0.0 0.0 0.00 0.16 0.16 1 1010.8
20260507232024 53 181 0.0 0.0 0.00 0.16 0.16 1 1010.8
20260507231523 53 181 0.0 0.0 0.00 0.16 0.16 1 1010.8
20260507231019 53 181 0.0 0.0 0.00 0.16 0.16 1 1010.8
20260507230518 53 181 0.0 0.0 0.00 0.16 0.16 1 1010.7
20260507230025 53 181 0.0 0.0 0.00 0.16 0.16 1 1010.6
20260507225515 53 181 0.0 0.0 0.00 0.16 0.16 1 1010.6
20260507225017 53 181 0.0 0.0 0.00 0.16 0.16 1 1010.6
20260507224521 53 181 0.0 0.9 0.00 0.16 0.16 1 1010.6
20260507224010 53 181 0.0 1.7 0.00 0.16 0.16 1 1010.6
20260507223508 54 180 0.0 1.7 0.00 0.16 0.16 1 1010.7
20260507223007 54 185 0.0 0.0 0.00 0.16 0.16 1 1010.7
20260507222505 54 185 0.0 0.0 0.00 0.16 0.16 1 1010.7
20260507222005 54 179 0.0 0.0 0.00 0.16 0.16 1 1010.6
20260507221504 54 179 0.0 0.0 0.00 0.16 0.16 1 1010.7
20260507221002 54 179 0.0 0.0 0.00 0.16 0.16 1 1010.7
20260507220600 54 179 0.0 0.0 0.00 0.16 0.16 1 1010.5
20260507220059 54 179 0.0 0.0 0.00 0.16 0.16 1 1010.3
20260507215558 54 179 0.0 0.0 0.01 0.16 0.16 1 1010.4
20260507215056 54 179 0.0 0.0 0.02 0.16 0.16 1 1010.5
20260507214556 54 179 0.0 0.0 0.05 0.16 0.16 1 1010.6
20260507214053 54 179 0.0 0.0 0.06 0.16 0.16 1 1010.5
20260507213551 54 179 0.0 0.0 0.06 0.16 0.16 1 1010.4
20260507213055 54 179 0.0 0.0 0.07 0.16 0.16 1 1010.4
20260507212548 54 179 0.0 0.0 0.07 0.16 0.16 1 1010.5
20260507212047 54 161 0.0 0.0 0.07 0.16 0.16 1 1010.4
20260507211551 54 161 0.0 0.0 0.07 0.16 0.16 1 1010.2
20260507211044 55 161 0.0 0.0 0.07 0.16 0.16 1 1010.3
20260507210543 55 161 0.0 0.0 0.07 0.16 0.16 1 1010.5
20260507210042 55 158 0.0 0.0 0.07 0.16 0.16 1 1010.6
20260507205540 55 158 0.0 0.0 0.06 0.15 0.15 1 1010.5
20260507205039 55 158 0.0 0.0 0.05 0.14 0.14 1 1010.7
20260507204537 55 158 0.0 0.0 0.03 0.11 0.11 1 1010.8
20260507204036 55 158 0.0 0.0 0.03 0.10 0.10 1 1010.6
20260507203534 55 158 0.0 0.0 0.05 0.10 0.10 1 1010.9
20260507203032 55 158 0.0 0.0 0.04 0.09 0.09 1 1010.8
20260507202530 55 158 0.0 0.0 0.04 0.09 0.09 1 1010.6
20260507202029 56 158 0.0 0.0 0.04 0.09 0.09 1 1010.9
20260507201536 56 158 0.0 0.0 0.04 0.09 0.09 1 1010.9
20260507201027 56 158 0.0 0.0 0.04 0.09 0.09 1 1010.7
20260507200525 56 158 0.0 0.0 0.04 0.09 0.09 1 1010.8
20260507200032 56 158 0.0 0.0 0.04 0.09 0.09 1 1010.9
20260507195525 56 158 0.0 0.0 0.04 0.09 0.09 1 1010.9
20260507195023 56 158 0.0 0.0 0.04 0.09 0.09 1 1011.0
20260507194519 56 158 0.0 0.0 0.03 0.08 0.08 1 1010.8
20260507194017 56 158 0.0 0.0 0.02 0.07 0.07 1 1010.8
20260507193516 56 158 0.0 0.0 0.00 0.05 0.05 2 1010.9
20260507193020 56 158 0.0 0.0 0.00 0.05 0.05 6 1011.0
20260507192514 57 158 0.0 0.0 0.00 0.05 0.05 9 1011.1
20260507192011 56 158 0.0 0.0 0.00 0.05 0.05 15 1011.0
20260507191516 56 158 0.0 0.0 0.00 0.05 0.05 17 1011.0
20260507191009 56 158 0.0 0.0 0.00 0.05 0.05 21 1011.2
20260507190508 56 158 0.0 0.0 0.00 0.05 0.05 25 1011.0
20260507190006 56 158 0.0 0.0 0.00 0.05 0.05 25 1011.2
20260507185504 56 158 0.0 0.9 0.00 0.06 0.05 25 1011.2
20260507185003 56 158 0.0 2.6 0.00 0.06 0.05 26 1011.0
20260507184602 56 158 0.0 2.6 0.00 0.06 0.05 26 1011.1
20260507184101 56 305 0.0 2.6 0.00 0.06 0.05 25 1011.0
20260507183602 56 302 0.9 2.6 0.00 0.06 0.05 24 1011.0
20260507183105 56 326 0.0 0.0 0.00 0.06 0.05 25 1010.9
20260507182556 56 325 0.0 1.7 0.00 0.06 0.05 27 1011.1
20260507182055 56 325 0.0 3.5 0.00 0.06 0.05 29 1011.3
20260507181554 56 325 0.0 3.5 0.00 0.06 0.05 29 1011.2
20260507181051 56 265 0.0 3.5 0.00 0.06 0.05 28 1011.1
20260507180550 56 265 0.9 3.5 0.00 0.06 0.05 29 1011.2
20260507180054 56 253 0.9 4.3 0.00 0.06 0.05 26 1011.1
20260507175547 56 286 0.9 6.1 0.00 0.06 0.05 21 1011.2
20260507175046 55 246 0.9 6.1 0.00 0.06 0.05 22 1011.1
20260507174545 55 311 0.0 2.6 0.00 0.06 0.05 20 1011.4
20260507174043 55 311 0.0 2.6 0.00 0.06 0.05 19 1011.3
20260507173543 55 100 0.0 2.6 0.00 0.06 0.05 18 1011.5
20260507173055 55 281 0.0 2.6 0.00 0.06 0.05 14 1011.8
20260507172539 55 355 0.9 3.5 0.00 0.06 0.05 8 1011.6
20260507172040 55 322 0.9 5.2 0.00 0.06 0.05 2 1011.5
20260507171537 55 141 0.9 5.2 0.00 0.06 0.05 1 1011.5
20260507171034 55 286 0.0 3.5 0.00 0.06 0.05 1 1011.7
20260507170536 55 304 0.0 3.5 0.00 0.06 0.05 1 1011.6
20260507170045 55 196 0.0 3.5 0.00 0.06 0.05 1 1011.9
20260507165530 55 281 0.0 2.6 0.00 0.06 0.05 1 1012.1
20260507165028 55 280 0.0 5.2 0.00 0.06 0.05 1 1012.1
20260507164527 56 315 0.0 5.2 0.00 0.06 0.05 1 1012.2
20260507164027 56 248 0.0 4.3 0.00 0.06 0.05 1 1012.1
20260507163525 55 261 0.0 7.0 0.00 0.06 0.05 1 1012.3
20260507163024 55 246 0.0 1.7 0.00 0.06 0.05 1 1012.1
20260507162521 55 246 0.0 1.7 0.00 0.06 0.05 1 1012.3
20260507162020 55 246 0.0 2.6 0.00 0.06 0.05 1 1012.0
20260507161518 55 140 0.0 1.7 0.00 0.06 0.05 1 1012.1
20260507161016 55 148 0.0 2.6 0.00 0.06 0.05 1 1012.2
20260507160516 55 151 0.0 2.6 0.00 0.06 0.05 1 1012.2
20260507160014 55 325 0.0 4.3 0.00 0.06 0.05 1 1012.2
20260507155513 55 326 0.0 4.3 0.00 0.06 0.05 1 1012.2
20260507155010 55 200 0.0 3.5 0.00 0.06 0.05 1 1012.2
20260507154510 56 332 0.0 2.6 0.00 0.06 0.05 1 1012.2
20260507154009 56 60 0.0 0.0 0.00 0.06 0.05 1 1012.2
20260507153506 56 60 0.0 0.0 0.00 0.06 0.05 1 1012.4
20260507153004 56 60 0.0 3.5 0.00 0.06 0.05 1 1012.3
20260507152504 56 61 0.9 3.5 0.00 0.06 0.05 1 1012.2
20260507152103 56 258 0.0 3.5 0.00 0.06 0.05 1 1012.2
20260507151601 56 280 0.9 2.6 0.00 0.06 0.05 1 1012.1
20260507151059 56 298 0.0 0.0 0.00 0.06 0.05 1 1012.2
20260507150557 56 298 0.0 0.0 0.00 0.06 0.05 1 1012.2
20260507150108 56 299 0.0 0.0 0.00 0.06 0.05 1 1012.3
20260507145556 56 299 0.0 0.0 0.00 0.12 0.05 1 1012.5
20260507145052 57 300 0.0 0.0 0.00 0.12 0.05 1 1012.3
20260507144551 57 300 0.0 0.0 0.00 0.12 0.05 1 1012.1
20260507144050 57 304 0.0 2.6 0.00 0.12 0.05 1 1011.8
20260507143548 57 304 0.0 2.6 0.00 0.12 0.05 1 1011.8
20260507143059 57 286 0.0 1.7 0.00 0.12 0.05 1 1012.1
20260507142545 57 286 0.0 1.7 0.00 0.12 0.05 1 1012.1
20260507142043 57 283 0.0 1.7 0.00 0.12 0.05 1 1012.1
20260507141542 57 282 0.0 3.5 0.00 0.12 0.05 1 1012.2
20260507141042 57 281 0.0 3.5 0.00 0.12 0.05 1 1012.3
20260507140540 57 270 0.0 4.3 0.00 0.12 0.05 1 1012.3
20260507140039 57 208 0.0 1.7 0.00 0.12 0.05 1 1012.4